{"data":{"norad_id":63503,"epoch":"2026-09-20T04:01:14.469312Z","epoch_age_seconds":184177,"freshness":"STALE","line1":"1 63503U 25071L   26263.16752858  .00011423  00000+0  34874-3 0  9992","line2":"2 63503  53.1587 309.5937 0001654  97.0612 263.0579 15.34396999 82645","mean_motion":15.34396999,"eccentricity":0.0001654,"inclination_deg":53.1587,"raan_deg":309.5937,"arg_perigee_deg":97.0612,"mean_anomaly_deg":263.0579,"bstar":0.00034874,"rev_number":8264,"period_min":93.847941630392,"perigee_km":461.58068337504,"apogee_km":463.84363627711,"semimajor_km":6840.8491598261,"source":"CELESTRAK","updated_at":"2026-09-21T09:00:35.015254Z"}}